Flag for U.S.A. Weather past 2 weeks in Cedar Rapids, Iowa, U.S.A.

Now
46 °F

Mostly cloudy.


Feels Like: 40 °F
Forecast: 45 / 58 °F
Wind: 13 mph from Southeast

Location: Cedar Rapids Municipal Airport


UV Index: 0 (Low)

Visibility: 10 mi


Pressure: 29.95 "Hg

Humidity: 79%

Dew point: 40 °F

Location of Cedar RapidsLocation

Historic Weather in Cedar Rapids

°F

Cedar Rapids temperature yesterday

Maximum temperature yesterday: 61 °F (at 3:52 PM)
Minimum temperature yesterday: 40 °F (at 6:52 AM)
Average temperature yesterday: 51 °F

Past Weeks' High & Low Weather Summary

 TemperatureHumidityPressure
High83 °F (Apr 12, 4:52 PM)100% (Apr 13, 4:52 PM)30.38 "Hg (Apr 13, 4:52 PM)
Low24 °F (Apr 15, 5:52 AM)15% (Apr 10, 12:52 PM)29.43 "Hg (Apr 13, 4:52 PM)
Average51 °F55%29.98 "Hg
* Reported Apr 8 4:52 PM — Apr 23 4:52 PM, Cedar Rapids, Weather by CustomWeather, © 2014

Note: Actual official high and low records may vary slightly from our data, if they occured in-between our weather recording intervals... More about our weather records

Advertising

Historic Weather Conditions — Data for Previous 24 hours

 ConditionsComfort  
Time TempWeatherWind HumidityBarometerVisibility
4:52 PM
Apr 23
45 °FLight rain. Mostly cloudy.15 mph82%29.98 "Hg6 mi
3:52 PM46 °FLight rain. Overcast.13 mph79%30.03 "Hg6 mi
2:52 PM48 °FLight rain. Overcast.10 mph61%30.09 "Hg9 mi
1:52 PM50 °FOvercast.17 mph48%30.07 "Hg10 mi
12:52 PM49 °FOvercast.13 mph50%30.08 "Hg10 mi
11:52 AM49 °FOvercast.15 mph50%30.11 "Hg10 mi
10:52 AM47 °FOvercast.15 mph56%30.13 "Hg10 mi
9:52 AM45 °FOvercast.15 mph58%30.15 "Hg10 mi
8:52 AM44 °FOvercast.13 mph60%30.14 "Hg10 mi
7:52 AM42 °FPartly sunny.17 mph62%30.13 "Hg10 mi
6:52 AM41 °FPassing clouds.14 mph70%30.11 "Hg10 mi
5:52 AM41 °FOvercast.8 mph76%30.11 "Hg10 mi
4:52 AM41 °FPassing clouds.9 mph70%30.10 "Hg10 mi
3:52 AM43 °FClear.12 mph62%30.07 "Hg10 mi
2:52 AM42 °FClear.9 mph62%30.07 "Hg10 mi
1:52 AM45 °FClear.9 mph56%30.06 "Hg10 mi
12:52 AM47 °FClear.7 mph54%30.06 "Hg10 mi
11:52 PM
Apr 22
48 °FClear.6 mph52%30.06 "Hg10 mi
10:52 PM47 °FClear.6 mph56%30.06 "Hg10 mi
9:52 PM49 °FClear.5 mph52%30.06 "Hg10 mi
8:52 PM49 °FSunny.7 mph52%30.04 "Hg10 mi
7:52 PM54 °FSunny.7 mph41%30.02 "Hg10 mi
Weather by CustomWeather, © 2014

See weather overview